sat.trackr.live / text

‹ back to catalog

STARLINK-3958

NORAD 52535 · 2022-051C

PAYLOAD ACTIVE UNKNOWN

§ Identity

Operator
Country
US
Launch date
2022-05-13
Launch site
AFWTR
Launch vehicle
Mass (kg)
RCS (m²)

Purposes: comms

External: N2YO · Heavens-Above · Gunter

§ Orbital elements

Epoch: 2026-05-25T03:37:37.537824Z

Period
95.44 min
Inclination
53.2139°
Eccentricity
0.0001002
Mean motion
15.08846769 rev/d
Perigee alt
539.0 km
Apogee alt
540.4 km
Semi-major
6,917.9 km
B*
2.2643e-5
RAAN
145.8694°
Arg perigee
66.1894°
Mean anomaly
293.9203°
Rev number
22,298

§ Raw data

STARLINK-39581 52535U 22051C   26145.15112891  .00000073  00000+0  22643-4 0  99962 52535  53.2139 145.8694 0001002  66.1894 293.9203 15.08846769222984

JSON: /api/v1/satellites/52535 · /tle

For live sub-satellite position, see the globe view (requires WebGL).

§ Visibility from observer

Set your observer location to see the next 7 days of passes ≥ 10°. The values pass through the URL so the page stays shareable.

No JS? Fill the form by hand. The geolocation button needs JavaScript.